Showing default

XINGYUN-2 01, 45602

Orbit data source: Space-Track

XINGYUN-2 01, 45602 is a payload satellite owned by Xingyun (CN) in SSO that was launched on Tue, 12 May 2020 UTC via a KUAIZHOU-1A launch vehicle from the Jiuquan Satellite Launch Center, China (JSC). Payload-class satellites include a variety of spacecraft equipped with specific instruments for various scientific and technological missions. These include communications satellites like Starlink; space stations such as the ISS; scientific satellites like the Hubble; Earth observation satellites from companies like Planet Labs, Umbra, and HawkEye 360; GPS; miniature CubeSats for education and research; and military/defense satellites.

Loading next visibility...
Identifier
45602, 2020-028A
Orbit
SSO
Country
Flag of CNCN / PRC
Related business
Manufacturer
Sanjiang
Mission
Operational Commercial Communications
Bus & Motor
XINGYUN, Unknown motor
Mass
93 kg wet, ~85 kg dry
Launch date (UTC)
2020-05-12 (6 years ago)
Launch vehicle
KUAIZHOU-1A
Launch site
Jiuquan Satellite Launch Center, China (JSC)
Object type
Payload
Rocket body
Debris
Shape & HBR
Box, Unknown HBR
Radar Cross Section
0.569 m², Medium (>0.1 m² and < 1m²)

Expand to show TLE details & history
Last TLE update: 11 hours ago

TLE from 11 hours ago
0 XINGYUN-2 01
1 45602U 20028A   25351.59768132  .00002417  00000-0  14946-3 0  9997
2 45602  97.4756 342.8503 0010753 105.6639 254.5778 15.10733388307410
Epoch: 2025-12-17T14:20Z
TLE epoch observation values (Epoch: 2025-12-17T14:20:39.666Z)
Latitude
-0.00001°
Longitude
41.21977°
Altitude
539.022 km
Speed
7.592 km/s
True Right ascension
22h 51m 24s
True Declination
0° 00' 00"
Sunlit
Object was in daylight at epoch
Visualization orbit readout
Latitude
Unknown
Longitude
Unknown
Altitude
Unknown
Speed
Unknown
Apparent Right ascension
Unknown
Apparent Declination
Unknown
Sunlit
N/A
Visualization observer readout
Local Sidereal Time
00:34:03
Azimuth
Unknown
Elevation
Unknown
Doppler factor
Unknown
Orbital elements
Apogee altitude
538.373 km
Perigee altitude
523.514 km
Semi-major axis
6,909.08 km
Eccentricity
0.00108
Inclination
97.4756°
RAAN
342.8503°
Arg. of periapsis
105.6639°
True anomaly
254.45906°
Mean anomaly
254.5778°
Eccentric anomaly
254.51843°
Mean motion
3.77931 °/min
Orbital period
95.26 mins
BSTAR
0.00014946
Loading maneuver chart data...
Computing Atmospheric mass density...
Loading historical data...
Loading historical data...
Loading historical data...
Loading historical data...
Loading historical data...
Loading historical data...
Loading historical data...
Other satellites on launch #28 in the year 2020 (2020-05-12 UTC)

Documentation

Showing up to 5 results
|